Weather History for PASX - December, 2012

Change the Weather History Date:

Monday, December 31, 2012

  Actual Average Record
Temperature  
Mean Temperature 30 °F -  
Max Temperature 39 °F 24 °F 42 °F (2014)
Min Temperature 21 °F 8 °F -29 °F (1964)
Degree Days  
Heating Degree Days 35    
Moisture  
Dew Point 27 °F    
Average Humidity 81    
Maximum Humidity 100    
Minimum Humidity 61    
Precipitation  
Precipitation 0.00 in - - ()
Sea Level Pressure  
Sea Level Pressure 29.59 in    
Wind  
Wind Speed 6 mph (ENE)    
Max Wind Speed 25 mph    
Max Gust Speed 38 mph    
Visibility 10 miles    
Events      
Averages and records for this station are not official NWS values.
T = Trace of Precipitation, MM = Missing Value Source: NWS Daily Summary

Daily Weather History Graph

Daily Weather History Graph

Search for Another Location

Airport or City:

Trip Planner

Search our weather history database for the weather conditions in past years. The results will help you decide how hot, cold, wet, or windy it might be!

Date:

Astronomy

Dec. 31, 2012 Rise Set
Actual Time 10:11 AM AKST 4:04 PM AKST
Civil Twilight 9:12 AM AKST 5:02 PM AKST
Nautical Twilight 8:15 AM AKST 5:59 PM AKST
Astronomical Twilight 7:23 AM AKST 6:52 PM AKST
Moon 8:55 PM AKST (12/31) 10:53 AM AKST (12/31)
Length of Visible Light 7h 49m
Length of Day
5h 53m
Waning Gibbous, 89% of the Moon is Illuminated
Dec 31
Waning Gibbous
Jan 4
Last Quarter
Jan 11
New
Jan 18
First Quarter
Jan 26
Full

Hourly Weather History & Observations

Time (AKST) Temp. Windchill Dew Point Humidity Pressure Visibility Wind Dir Wind Speed Gust Speed Precip Events Conditions
12:16 AM 39.2 °F 34.2 °F 30.2 °F 70% 29.38 in 10.0 mi East 6.9 mph - N/A   Overcast
12:36 AM 37.4 °F 30.8 °F 30.2 °F 75% 29.40 in 10.0 mi East 9.2 mph - N/A   Overcast
12:56 AM 39.2 °F 33.6 °F 30.2 °F 70% 29.41 in 10.0 mi SE 8.1 mph - N/A   Overcast
1:16 AM 37.4 °F 32.1 °F 30.2 °F 75% 29.43 in 10.0 mi East 6.9 mph - N/A   Overcast
1:36 AM 39.2 °F 35.9 °F 30.2 °F 70% 29.44 in 10.0 mi East 4.6 mph - N/A   Overcast
1:56 AM 37.4 °F 34.9 °F 30.2 °F 75% 29.45 in 10.0 mi East 3.5 mph - N/A   Overcast
2:16 AM 33.8 °F 29.6 °F 28.4 °F 81% 29.47 in 10.0 mi East 4.6 mph - N/A   Mostly Cloudy
2:36 AM 33.8 °F 30.8 °F 30.2 °F 87% 29.49 in 10.0 mi East 3.5 mph - N/A   Mostly Cloudy
2:56 AM 33.8 °F 28.6 °F 30.2 °F 87% 29.50 in 10.0 mi East 5.8 mph - N/A   Mostly Cloudy
3:16 AM 33.8 °F 26.4 °F 30.2 °F 87% 29.50 in 10.0 mi East 9.2 mph - N/A   Overcast
3:36 AM 35.6 °F 30.7 °F 30.2 °F 81% 29.51 in 10.0 mi East 5.8 mph - N/A   Overcast
3:56 AM 35.6 °F 31.7 °F 30.2 °F 81% 29.52 in 10.0 mi East 4.6 mph - N/A   Overcast
4:16 AM 35.6 °F 31.7 °F 30.2 °F 81% 29.52 in 10.0 mi East 4.6 mph - N/A   Mostly Cloudy
4:36 AM 35.6 °F 31.7 °F 30.2 °F 81% 29.53 in 10.0 mi East 4.6 mph - N/A   Mostly Cloudy
4:56 AM 35.6 °F 32.8 °F 30.2 °F 81% 29.54 in 10.0 mi ENE 3.5 mph - N/A   Partly Cloudy
5:16 AM 33.8 °F - 28.4 °F 81% 29.55 in 10.0 mi Calm Calm - N/A   Clear
5:36 AM 30.2 °F 26.7 °F 28.4 °F 93% 29.55 in 10.0 mi ESE 3.5 mph - N/A   Clear
5:56 AM 28.4 °F - 26.6 °F 93% 29.57 in 10.0 mi Calm Calm - N/A   Clear
6:16 AM 30.2 °F - 28.4 °F 93% 29.57 in 10.0 mi Calm Calm - N/A   Clear
6:36 AM 28.4 °F 24.6 °F 24.8 °F 86% 29.59 in 10.0 mi ENE 3.5 mph - N/A   Clear
6:56 AM 26.6 °F 22.6 °F 24.8 °F 93% 29.60 in 10.0 mi ENE 3.5 mph - N/A   Clear
7:16 AM 26.6 °F - 24.8 °F 93% 29.62 in 10.0 mi Calm Calm - N/A   Clear
7:36 AM 24.8 °F 20.5 °F 24.8 °F 100% 29.62 in 10.0 mi East 3.5 mph - N/A   Clear
7:56 AM 26.6 °F - 24.8 °F 93% 29.63 in 10.0 mi Calm Calm - N/A   Clear
8:16 AM 26.6 °F - 24.8 °F 93% 29.64 in 10.0 mi Calm Calm - N/A   Clear
8:36 AM 26.6 °F 21.2 °F 24.8 °F 93% 29.65 in 10.0 mi ENE 4.6 mph - N/A   Clear
8:56 AM 24.8 °F 19.1 °F 23.0 °F 93% 29.66 in 10.0 mi ENE 4.6 mph - N/A   Clear
9:16 AM 24.8 °F - 24.8 °F 100% 29.68 in 10.0 mi Calm Calm - N/A   Clear
9:36 AM 24.8 °F - 23.0 °F 93% 29.68 in 10.0 mi Calm Calm - N/A   Clear
9:56 AM 23.0 °F - 21.2 °F 93% 29.69 in 10.0 mi Calm Calm - N/A   Clear
10:16 AM 21.2 °F - 19.4 °F 93% 29.69 in 10.0 mi Calm Calm - N/A   Clear
10:36 AM 21.2 °F - 21.2 °F 100% 29.70 in 10.0 mi Calm Calm - N/A   Clear
10:56 AM 21.2 °F - 21.2 °F 100% 29.71 in 10.0 mi Calm Calm - N/A   Clear
11:16 AM 21.2 °F - 21.2 °F 100% 29.71 in 10.0 mi Calm Calm - N/A   Clear
11:36 AM 21.2 °F - 19.4 °F 93% 29.71 in 10.0 mi Calm Calm - N/A   Clear
11:56 AM 21.2 °F - 17.6 °F 86% 29.70 in 10.0 mi Calm Calm - N/A   Clear
12:16 PM 21.2 °F - 17.6 °F 86% 29.70 in 10.0 mi Calm Calm - N/A   Clear
12:36 PM 21.2 °F - 19.4 °F 93% 29.71 in 10.0 mi Calm Calm - N/A   Clear
12:56 PM 21.2 °F 12.6 °F 19.4 °F 93% 29.70 in 8.0 mi East 6.9 mph - N/A   Clear
1:16 PM 28.4 °F 21.2 °F 26.6 °F 93% 29.71 in 10.0 mi East 6.9 mph - N/A   Clear
1:36 PM 28.4 °F 20.4 °F 26.6 °F 93% 29.71 in 10.0 mi East 8.1 mph - N/A   Clear
1:56 PM 32.0 °F 24.8 °F 28.4 °F 87% 29.71 in 10.0 mi East 8.1 mph - N/A   Clear
2:16 PM 33.8 °F 28.6 °F 28.4 °F 81% 29.71 in 10.0 mi East 5.8 mph - N/A   Clear
2:36 PM 33.8 °F 29.6 °F 28.4 °F 81% 29.71 in 10.0 mi East 4.6 mph - N/A   Scattered Clouds
2:56 PM 35.6 °F 30.7 °F 26.6 °F 70% 29.70 in 10.0 mi East 5.8 mph - N/A   Mostly Cloudy
3:16 PM 37.4 °F 30.3 °F 28.4 °F 70% 29.68 in 10.0 mi ENE 10.4 mph - N/A   Overcast
3:36 PM 37.4 °F 29.8 °F 26.6 °F 65% 29.68 in 10.0 mi East 11.5 mph 17.3 mph N/A   Overcast
3:56 PM 37.4 °F 28.9 °F 26.6 °F 65% 29.66 in 10.0 mi East 13.8 mph - N/A   Overcast
4:16 PM 39.2 °F 31.6 °F 26.6 °F 61% 29.65 in 10.0 mi ENE 12.7 mph - N/A   Mostly Cloudy
4:36 PM 39.2 °F 31.2 °F 26.6 °F 61% 29.64 in 10.0 mi ENE 13.8 mph 27.6 mph N/A   Clear
4:56 PM 39.2 °F 33.0 °F 26.6 °F 61% 29.64 in 10.0 mi NE 9.2 mph - N/A   Clear
5:16 PM 39.2 °F 32.5 °F 28.4 °F 65% 29.63 in 10.0 mi ENE 10.4 mph - N/A   Clear
5:36 PM 39.2 °F 31.6 °F 26.6 °F 61% 29.63 in 10.0 mi ENE 12.7 mph 20.7 mph N/A   Clear
5:56 PM 39.2 °F 31.6 °F 28.4 °F 65% 29.62 in 10.0 mi East 12.7 mph 19.6 mph N/A   Clear
6:16 PM 39.2 °F 32.0 °F 30.2 °F 70% 29.61 in 10.0 mi ENE 11.5 mph - N/A   Clear
6:36 PM 37.4 °F 30.8 °F 30.2 °F 75% 29.61 in 10.0 mi ENE 9.2 mph - N/A   Scattered Clouds
6:56 PM 39.2 °F 33.0 °F 30.2 °F 70% 29.60 in 10.0 mi ENE 9.2 mph - N/A   Mostly Cloudy
7:16 PM 39.2 °F 33.0 °F 30.2 °F 70% 29.59 in 10.0 mi ENE 9.2 mph - N/A   Overcast
7:36 PM 39.2 °F 31.6 °F 30.2 °F 70% 29.58 in 10.0 mi ENE 12.7 mph - N/A   Overcast
7:56 PM 39.2 °F 33.0 °F 30.2 °F 70% 29.57 in 10.0 mi ENE 9.2 mph 17.3 mph N/A   Overcast
8:16 PM 39.2 °F 31.6 °F 30.2 °F 70% 29.56 in 10.0 mi East 12.7 mph 16.1 mph N/A   Overcast
8:36 PM 39.2 °F 33.6 °F 30.2 °F 70% 29.56 in 10.0 mi ENE 8.1 mph - N/A   Overcast
8:56 PM 39.2 °F 33.0 °F 30.2 °F 70% 29.55 in 10.0 mi NE 9.2 mph 16.1 mph N/A   Overcast
9:16 PM 37.4 °F 31.4 °F 28.4 °F 70% 29.54 in 10.0 mi NE 8.1 mph - N/A   Overcast
9:36 PM 37.4 °F 31.4 °F 30.2 °F 75% 29.53 in 10.0 mi ENE 8.1 mph - N/A   Overcast
9:56 PM 37.4 °F 31.4 °F 30.2 °F 75% 29.53 in 10.0 mi ENE 8.1 mph 17.3 mph N/A   Overcast
10:16 PM 39.2 °F 28.7 °F 32.0 °F 75% 29.51 in 10.0 mi ENE 23.0 mph 29.9 mph N/A   Overcast
10:36 PM 39.2 °F 28.7 °F 32.0 °F 75% 29.50 in 10.0 mi ENE 23.0 mph 31.1 mph N/A   Overcast
10:56 PM 37.4 °F 25.9 °F 33.8 °F 87% 29.49 in 10.0 mi ENE 25.3 mph 38.0 mph N/A   Mostly Cloudy
11:16 PM 37.4 °F 27.5 °F 33.8 °F 87% 29.48 in 10.0 mi ENE 18.4 mph 32.2 mph N/A   Overcast
11:36 PM 37.4 °F 28.2 °F 33.8 °F 87% 29.48 in 10.0 mi ENE 16.1 mph 31.1 mph N/A   Overcast
11:56 PM 37.4 °F 28.5 °F 33.8 °F 87% 29.47 in 10.0 mi NE 15.0 mph 23.0 mph N/A   Overcast